User: anonymous   Login
Location: Unspecified
(0.0000°N, 0.0000°E)
Time: 01:12:56
(UTC+00:00)
Language:

Meteor 1-27 - Orbit

View from above orbital plane
View from above orbital plane
View from above satellite
View from above satellite

Ground track
Ground track

The orbit data is extracted from the following two-line orbital elements,

1  9903U 77024A   18015.72177015 +.00000159 +00000-0 +84979-4 0  9992
2  9903 081.2572 235.9998 0039463 046.7933 313.6521 14.08266865094796
Epoch (UTC): 15 January 2018 17:19:20
Eccentricity: 0.0039463
inclination: 81.2572°
perigee height: 837 km
apogee height: 894 km
right ascension of ascending node: 235.9998°
argument of perigee: 46.7933°
revolutions per day: 14.08266865
mean anomaly at epoch: 313.6521°
orbit number at epoch: 9479

The dashed part of the orbit path shows where the satellite is in the earth's shadow,  

DLR